GW2646 Weather Reports


time (UTC)temp
F
wind
direction
speed
knots
gust
knots
rain 1hr
in
rain 24hr
in
rain mn
in
humidity
%
barometer
mb
20260505023106 70 301 1.7 6.1 0.00 0.00 0.00 53 1009.5
20260505022549 70 323 2.6 6.1 0.00 0.00 0.00 52 1009.4
20260505022050 71 300 1.7 8.7 0.00 0.00 0.00 51 1009.4
20260505021601 71 315 3.5 8.7 0.00 0.00 0.00 50 1009.4
20260505021045 72 263 2.6 8.7 0.00 0.00 0.00 51 1009.4
20260505020545 72 302 2.6 8.7 0.00 0.00 0.00 50 1009.3
20260505020057 72 348 2.6 8.7 0.00 0.00 0.00 49 1009.3
20260505015546 73 350 4.3 9.6 0.00 0.00 0.00 48 1009.2
20260505015046 74 341 4.3 9.6 0.00 0.00 0.00 48 1009.2
20260505014556 74 306 2.6 7.8 0.00 0.00 0.00 49 1009.2
20260505014045 75 272 1.7 7.0 0.00 0.00 0.00 48 1009.2
20260505013544 75 0 1.7 7.0 0.00 0.00 0.00 50 1009.1
20260505013105 75 334 2.6 8.7 0.00 0.00 0.00 50 1009.2
20260505012547 75 9 1.7 9.6 0.00 0.00 0.00 50 1009.1
20260505012047 75 333 1.7 9.6 0.00 0.00 0.00 50 1009.1
20260505011601 76 15 3.5 9.6 0.00 0.00 0.00 49 1009.1
20260505011047 76 317 3.5 9.6 0.00 0.00 0.00 49 1009.1
20260505010547 76 326 3.5 8.7 0.00 0.00 0.00 48 1009.1
20260505010109 77 281 2.6 8.7 0.00 0.00 0.00 46 1009.0
20260505005548 78 333 3.5 7.8 0.00 0.00 0.00 45 1009.1
20260505005048 79 308 2.6 8.7 0.00 0.00 0.00 42 1009.0
20260505004559 79 294 2.6 8.7 0.00 0.00 0.00 42 1008.9
20260505004050 79 291 1.7 7.0 0.00 0.00 0.00 40 1008.9
20260505003547 80 284 1.7 7.0 0.00 0.00 0.00 39 1008.9
20260505003053 80 342 1.7 7.8 0.00 0.00 0.00 39 1008.9
20260505002547 80 294 2.6 7.8 0.00 0.00 0.00 38 1008.9
20260505002047 80 0 0.9 5.2 0.00 0.00 0.00 39 1008.9
20260505001558 80 281 1.7 9.6 0.00 0.00 0.00 39 1009.0
20260505001049 80 288 0.9 9.6 0.00 0.00 0.00 38 1009.0
20260505000551 80 286 1.7 9.6 0.00 0.00 0.00 37 1009.1
20260505000101 79 235 0.9 5.2 0.00 0.00 0.00 38 1009.1
20260504235549 80 296 0.0 6.1 0.00 0.00 0.00 39 1009.2
20260504235049 79 352 1.7 6.1 0.00 0.00 0.00 38 1009.1
20260504234616 80 326 1.7 5.2 0.00 0.00 0.00 38 1009.1
20260504234048 79 308 1.7 5.2 0.00 0.00 0.00 40 1009.2
20260504233548 79 317 0.9 7.8 0.00 0.00 0.00 39 1009.3
20260504233058 80 223 2.6 7.8 0.00 0.00 0.00 41 1009.3
20260504232548 80 163 2.6 7.0 0.00 0.00 0.00 40 1009.3
20260504232047 80 163 1.7 7.0 0.00 0.00 0.00 40 1009.3
20260504231559 79 203 1.7 8.7 0.00 0.00 0.00 40 1009.3
20260504231045 78 225 3.5 8.7 0.00 0.00 0.00 41 1009.4
20260504230547 79 221 3.5 6.1 0.00 0.00 0.00 41 1009.4
20260504230053 81 208 1.7 7.0 0.00 0.00 0.00 40 1009.4
20260504225549 80 155 1.7 8.7 0.00 0.00 0.00 42 1009.4
20260504225049 78 0 2.6 8.7 0.00 0.00 0.00 41 1009.4
20260504224604 79 277 1.7 8.7 0.00 0.00 0.00 40 1009.4
20260504224048 81 240 1.7 8.7 0.00 0.00 0.00 38 1009.4
20260504223549 81 165 1.7 8.7 0.00 0.00 0.00 40 1009.5
20260504223054 80 223 2.6 7.0 0.00 0.00 0.00 39 1009.5
20260504222549 80 173 1.7 7.0 0.00 0.00 0.00 39 1009.5
20260504222048 80 219 1.7 7.0 0.00 0.00 0.00 40 1009.5
20260504221604 79 0 2.6 7.0 0.00 0.00 0.00 39 1009.5
20260504221048 79 225 2.6 6.1 0.00 0.00 0.00 39 1009.6
20260504220548 79 311 1.7 7.0 0.00 0.00 0.00 37 1009.6
20260504220058 79 286 1.7 7.0 0.00 0.00 0.00 39 1009.7
20260504215546 79 317 0.9 9.6 0.00 0.00 0.00 38 1009.9
20260504215047 78 180 3.5 9.6 0.00 0.00 0.00 38 1010.0
20260504214602 78 300 1.7 7.0 0.00 0.00 0.00 38 1010.1
20260504214046 79 203 1.7 6.1 0.00 0.00 0.00 38 1010.1
20260504213545 79 281 0.9 7.0 0.00 0.00 0.00 37 1010.1
20260504213105 79 155 0.9 7.0 0.00 0.00 0.00 38 1010.1
20260504212545 78 217 3.5 8.7 0.00 0.00 0.00 41 1010.1
20260504212044 78 167 2.6 8.7 0.00 0.00 0.00 42 1010.2
20260504211604 77 117 1.7 8.7 0.00 0.00 0.00 43 1010.2
20260504211045 77 200 1.7 8.7 0.00 0.00 0.00 43 1010.2
20260504210543 77 269 2.6 7.0 0.00 0.00 0.00 43 1010.2
20260504205549 75 232 1.7 8.7 0.00 0.00 0.00 45 1010.2
20260504205051 77 225 1.7 7.0 0.00 0.00 0.00 43 1010.2
20260504204635 77 96 3.5 8.7 0.00 0.00 0.00 45 1010.3
20260504204048 77 162 3.5 8.7 0.00 0.00 0.00 43 1010.3
20260504203549 77 174 2.6 7.8 0.00 0.00 0.00 43 1010.4
20260504203053 77 157 2.6 7.0 0.00 0.00 0.00 42 1010.4
20260504202545 75 0 2.6 9.6 0.00 0.00 0.00 44 1010.4
20260504202046 76 271 0.9 9.6 0.00 0.00 0.00 44 1010.5
20260504201554 76 159 0.0 6.1 0.00 0.00 0.00 46 1010.4
20260504201046 76 157 2.6 7.0 0.00 0.00 0.00 45 1010.5
20260504200546 74 223 2.6 7.0 0.00 0.00 0.00 48 1010.4
20260504200055 75 218 2.6 7.8 0.00 0.00 0.00 49 1010.6
20260504195546 76 194 1.7 7.8 0.00 0.00 0.00 45 1010.6
20260504195046 75 134 2.6 7.8 0.00 0.00 0.00 46 1010.6
20260504194555 74 179 2.6 7.8 0.00 0.00 0.00 48 1010.5
20260504194046 75 157 0.9 9.6 0.00 0.00 0.00 48 1010.5
20260504193545 74 221 2.6 9.6 0.00 0.00 0.00 47 1010.4
20260504193050 73 188 3.5 9.6 0.00 0.00 0.00 48 1010.5
20260504192545 73 186 2.6 9.6 0.00 0.00 0.00 48 1010.4
20260504192048 73 242 2.6 9.6 0.00 0.00 0.00 48 1010.4
20260504191555 74 146 3.5 8.7 0.00 0.00 0.00 47 1010.5
20260504191046 74 156 3.5 9.6 0.00 0.00 0.00 48 1010.4
20260504190546 74 155 3.5 9.6 0.00 0.00 0.00 48 1010.5
20260504190100 73 219 3.5 8.7 0.00 0.00 0.00 49 1010.5
20260504185545 73 176 3.5 8.7 0.00 0.00 0.00 50 1010.5
20260504185048 73 225 2.6 7.8 0.00 0.00 0.00 52 1010.6
20260504184604 72 200 2.6 7.8 0.00 0.00 0.00 48 1010.5
20260504184048 73 225 2.6 8.7 0.00 0.00 0.00 49 1010.5
20260504183548 72 177 3.5 8.7 0.00 0.00 0.00 52 1010.4
20260504183058 73 192 3.5 7.8 0.00 0.00 0.00 51 1010.5
20260504182550 73 148 2.6 7.8 0.00 0.00 0.00 55 1010.5
20260504182048 72 165 3.5 7.0 0.00 0.00 0.00 55 1010.5
20260504181552 72 213 1.7 7.0 0.00 0.00 0.00 57 1010.4
20260504181048 72 165 1.7 7.0 0.00 0.00 0.00 54 1010.4
20260504180549 72 168 2.6 7.0 0.00 0.00 0.00 57 1010.4
20260504180051 71 202 2.6 7.0 0.00 0.00 0.00 57 1010.4
20260504175551 70 0 2.6 7.0 0.00 0.00 0.00 60 1010.5
20260504175048 71 207 0.9 7.8 0.00 0.00 0.00 59 1010.4
20260504174550 69 238 3.5 7.8 0.00 0.00 0.00 61 1010.5
20260504174048 69 229 2.6 7.0 0.00 0.00 0.00 61 1010.4
20260504173549 69 229 2.6 6.1 0.00 0.00 0.00 61 1010.4
20260504173053 69 261 0.9 6.1 0.00 0.00 0.00 62 1010.3
20260504172547 68 0 1.7 6.1 0.00 0.00 0.00 63 1010.3
20260504172047 68 188 1.7 6.1 0.00 0.00 0.00 63 1010.3
20260504171552 68 290 0.0 2.6 0.00 0.00 0.00 63 1010.3
20260504171048 68 300 0.0 2.6 0.00 0.00 0.00 63 1010.4
20260504170547 67 300 0.0 4.3 0.00 0.00 0.00 64 1010.4
20260504151048 58 0 0.0 1.7 0.00 0.00 0.00 80 1010.3
20260504150550 57 323 0.0 1.7 0.00 0.00 0.00 82 1010.4
20260504141047 52 0 0.0 0.0 0.00 0.00 0.00 92 1009.7
20260504140547 51 0 0.0 0.9 0.00 0.00 0.00 93 1009.8
20260504130547 50 0 0.0 0.0 0.00 0.00 0.00 92 1009.4
20260504110546 51 0 0.0 0.0 0.00 0.00 0.00 89 1009.4
20260504100545 52 0 0.0 0.0 0.00 0.00 0.00 87 1009.5
20260504081555 53 0 0.0 0.0 0.00 0.00 0.00 82 1009.3
20260504081047 53 0 0.0 0.0 0.00 0.00 0.00 82 1009.3
20260504080547 53 0 0.0 0.9 0.00 0.00 0.00 82 1009.3
20260504050548 61 0 0.0 0.0 0.00 0.00 0.00 64 1009.4
20260504045547 63 0 0.0 0.0 0.00 0.00 0.00 58 1009.5
20260504045048 63 0 0.0 0.0 0.00 0.00 0.00 58 1009.4
20260504044557 63 0 0.0 0.0 0.00 0.00 0.00 57 1009.5
20260504044048 64 0 0.0 0.9 0.00 0.00 0.00 56 1009.5
20260504043550 64 0 0.0 0.9 0.00 0.00 0.00 57 1009.5
20260504043057 65 0 0.0 0.0 0.00 0.00 0.00 56 1009.4
20260504042552 65 0 0.0 0.0 0.00 0.00 0.00 54 1009.4
20260504042048 66 0 0.0 0.9 0.00 0.00 0.00 52 1009.5
20260504041551 67 0 0.0 0.9 0.00 0.00 0.00 51 1009.4
20260504041048 67 0 0.0 0.9 0.00 0.00 0.00 50 1009.4
20260504040550 67 0 0.0 0.9 0.00 0.00 0.00 50 1009.4
20260504040055 68 0 0.0 0.9 0.00 0.00 0.00 49 1009.4
20260504035547 68 0 0.0 1.7 0.00 0.00 0.00 48 1009.3
20260504035048 68 0 0.0 1.7 0.00 0.00 0.00 47 1009.3
20260504034611 69 0 0.0 2.6 0.00 0.00 0.00 47 1009.2
20260504034047 69 0 0.0 2.6 0.00 0.00 0.00 46 1009.2
20260504033548 69 323 0.0 2.6 0.00 0.00 0.00 46 1009.2
20260504033051 70 0 0.0 0.9 0.00 0.00 0.00 45 1009.2
20260504032547 70 0 0.0 2.6 0.00 0.00 0.00 45 1009.1
20260504032050 71 0 0.0 2.6 0.00 0.00 0.00 45 1009.1
20260504031552 72 0 0.0 0.9 0.00 0.00 0.00 43 1009.0
20260504031048 72 0 0.0 0.9 0.00 0.00 0.00 42 1009.0
20260504030545 72 0 0.0 2.6 0.00 0.00 0.00 41 1009.0
20260504030051 72 0 0.0 3.5 0.00 0.00 0.00 39 1009.2
20260504025545 73 0 0.9 4.3 0.00 0.00 0.00 38 1009.3
20260504025045 73 311 0.0 5.2 0.00 0.00 0.00 38 1009.3
20260504024558 73 304 1.7 6.1 0.00 0.00 0.00 37 1009.3
20260504024046 74 295 1.7 6.1 0.00 0.00 0.00 37 1009.3
20260504023544 74 330 1.7 6.1 0.00 0.00 0.00 38 1009.3